This is the latest recevied weather packets stored in our database for station/object NN5DX-13. If no packets are shown the sender has not sent any weather packets the latest 10 day(s).
| Time | Temp. | Humidity | Pressure | Rain* | Wind** | Luminosity | Snow |
|---|---|---|---|---|---|---|---|
| 1777591816 | 22.78° C | 48% | 1011.3 hPa | 0 mm | - | - | - |
| 1777591516 | 22.78° C | 47% | 1011 hPa | 0 mm | - | - | - |
| 1777591216 | 22.78° C | 47% | 1010.8 hPa | 0 mm | - | - | - |
| 1777590917 | 23.33° C | 47% | 1010.8 hPa | 0 mm | - | - | - |
| 1777590616 | 23.33° C | 47% | 1010.8 hPa | 0 mm | - | - | - |
| 1777590316 | 23.89° C | 47% | 1010.9 hPa | 0 mm | - | - | - |
| 1777590016 | 23.89° C | 46% | 1010.8 hPa | 0 mm | - | - | - |
| 1777589716 | 24.44° C | 46% | 1011 hPa | 0 mm | - | - | - |
| 1777589416 | 24.44° C | 46% | 1010.7 hPa | 0 mm | - | - | - |
| 1777589116 | 24.44° C | 45% | 1010.8 hPa | 0 mm | - | - | - |
| 1777588816 | 24.44° C | 47% | 1010.8 hPa | 0 mm | - | - | - |
| 1777588516 | 25° C | 47% | 1010.7 hPa | 0 mm | - | - | - |
| 1777588216 | 25° C | 48% | 1010.5 hPa | 0 mm | - | - | - |
| 1777587916 | 24.44° C | 49% | 1010.6 hPa | 0 mm | - | - | - |
| 1777587616 | 24.44° C | 48% | 1009.9 hPa | 0 mm | - | - | - |
| 1777587316 | 24.44° C | 48% | 1010.7 hPa | 0 mm | - | - | - |
| 1777587016 | 24.44° C | 49% | 1011 hPa | 0 mm | - | - | - |
| 1777586716 | 25° C | 48% | 1011.2 hPa | 0 mm | - | - | - |
| 1777586416 | 24.44° C | 50% | 1010.6 hPa | 0 mm | - | - | - |
| 1777586116 | 24.44° C | 50% | 1011.4 hPa | 0 mm | - | - | - |
| 1777585816 | 23.89° C | 53% | 1010.9 hPa | 0 mm | - | - | - |
| 1777585516 | 23.89° C | 52% | 1011 hPa | 0 mm | - | - | - |
| 1777585216 | 23.89° C | 54% | 1011.1 hPa | 0 mm | - | - | - |
| 1777584916 | 23.89° C | 54% | 1011.4 hPa | 0 mm | - | - | - |
| 1777584616 | 24.44° C | 53% | 1011.4 hPa | 0 mm | - | - | - |
* Rain latest hour (hover to see other rain measurements)
** Current wind speed in m/s (hover to see current wind gust speed)